RYR33VH LFOB-LFKF

Flight info

Callsign RYR33VH
Flight time N/A
Altitude 35000
Route LATRA DCT LAMUT DCT UTUVA DCT TITVA DCT NOQAS DCT OTROT DCT RETNO DCT KOLON DCT OMARD M623 VAREK
Aircraft B738/M-SDE2E3FGHIRWXY/LB1

Departure

Time 2026-04-26 11:00
Airport Beauvais-Tillé airport (LFOB)

Arrival

Time N/A
Airport Figari Sud-Corse Airport (LFKF)
Time Latitude Longitude Altitude Speed Heading
2026-04-26 10:07 49.45824 2.11334 347 ft 0 kts 311°
2026-04-26 10:49 49.45823 2.11335 347 ft 2 kts 311°
2026-04-26 10:49 49.45801 2.11374 347 ft 4 kts 311°
2026-04-26 10:49 49.45792 2.11389 347 ft 0 kts 311°
2026-04-26 10:54 49.45793 2.11387 347 ft 0 kts 293°
2026-04-26 10:54 49.45792 2.11383 347 ft 0 kts 259°
2026-04-26 10:54 49.45787 2.11375 346 ft 2 kts 210°
2026-04-26 10:54 49.45753 2.11354 346 ft 6 kts 202°
2026-04-26 10:55 49.45714 2.11313 345 ft 7 kts 229°
2026-04-26 10:55 49.45708 2.11239 345 ft 7 kts 289°
2026-04-26 10:55 49.45735 2.11165 345 ft 8 kts 303°
2026-04-26 10:55 49.45768 2.11089 346 ft 8 kts 302°
2026-04-26 10:56 49.45781 2.11005 346 ft 7 kts 242°
2026-04-26 10:56 49.45735 2.10946 346 ft 9 kts 210°
2026-04-26 10:56 49.45672 2.10890 346 ft 11 kts 219°
2026-04-26 10:56 49.45660 2.10788 347 ft 10 kts 295°
2026-04-26 10:57 49.45701 2.10689 348 ft 11 kts 303°
2026-04-26 10:57 49.45751 2.10574 349 ft 13 kts 304°
2026-04-26 10:57 49.45821 2.10481 350 ft 13 kts 334°
2026-04-26 10:57 49.45814 2.10419 350 ft 9 kts 160°
2026-04-26 10:58 49.45772 2.10520 350 ft 12 kts 121°
2026-04-26 10:58 49.45759 2.10551 349 ft 0 kts 123°
2026-04-26 10:59 49.45748 2.10576 349 ft 14 kts 123°
2026-04-26 10:59 49.45529 2.11092 341 ft 97 kts 122°
2026-04-26 11:00 49.45002 2.12293 323 ft 166 kts 122°
2026-04-26 11:00 49.44280 2.13905 891 ft 183 kts 123°
2026-04-26 11:00 49.43619 2.15493 1910 ft 176 kts 111°
2026-04-26 11:00 49.43303 2.17365 2470 ft 184 kts 88°
2026-04-26 11:01 49.43577 2.19418 2705 ft 209 kts 68°
2026-04-26 11:01 49.43985 2.21773 3098 ft 235 kts 77°
2026-04-26 11:01 49.44196 2.24368 3768 ft 252 kts 82°
2026-04-26 11:01 49.44340 2.27077 4687 ft 257 kts 82°
2026-04-26 11:02 49.44470 2.29905 5396 ft 269 kts 82°
2026-04-26 11:02 49.44613 2.32836 6172 ft 279 kts 81°
2026-04-26 11:02 49.44740 2.35850 7032 ft 286 kts 88°
2026-04-26 11:02 49.44236 2.38859 7828 ft 300 kts 115°
2026-04-26 11:03 49.43096 2.41628 8616 ft 308 kts 124°
2026-04-26 11:03 49.41878 2.44449 9420 ft 313 kts 121°
2026-04-26 11:03 49.40731 2.47307 10195 ft 319 kts 120°
2026-04-26 11:03 49.39599 2.50335 10725 ft 334 kts 120°
2026-04-26 11:04 49.38376 2.53587 10970 ft 358 kts 121°
2026-04-26 11:04 49.37116 2.56969 11702 ft 364 kts 121°
2026-04-26 11:04 49.35846 2.60377 12383 ft 371 kts 122°
2026-04-26 11:04 49.34539 2.63870 13144 ft 375 kts 122°
2026-04-26 11:05 49.33242 2.67335 13840 ft 380 kts 123°
2026-04-26 11:05 49.31910 2.70900 14525 ft 385 kts 123°
2026-04-26 11:05 49.30582 2.74452 15185 ft 390 kts 123°
2026-04-26 11:05 49.29211 2.78113 15842 ft 395 kts 123°
2026-04-26 11:06 49.27821 2.81818 16484 ft 399 kts 123°
2026-04-26 11:06 49.26417 2.85557 17110 ft 404 kts 124°
2026-04-26 11:06 49.25003 2.89317 17723 ft 409 kts 124°
2026-04-26 11:06 49.23589 2.93078 18354 ft 412 kts 124°
2026-04-26 11:07 49.22126 2.96899 18961 ft 414 kts 128°
2026-04-26 11:07 49.20283 3.00344 19554 ft 409 kts 142°
2026-04-26 11:07 49.18019 3.02936 20145 ft 399 kts 160°
2026-04-26 11:07 49.15465 3.04381 20726 ft 386 kts 176°
2026-04-26 11:08 49.12803 3.04826 21296 ft 377 kts 188°
2026-04-26 11:08 49.10192 3.04631 21809 ft 376 kts 193°
2026-04-26 11:08 49.07543 3.04288 22286 ft 381 kts 193°
2026-04-26 11:08 49.04850 3.03933 22787 ft 385 kts 193°
2026-04-26 11:09 49.02145 3.03582 23254 ft 389 kts 192°
2026-04-26 11:09 48.99380 3.03227 23723 ft 393 kts 192°
2026-04-26 11:09 48.96624 3.02875 24172 ft 397 kts 192°
2026-04-26 11:09 48.93816 3.02522 24644 ft 401 kts 191°
2026-04-26 11:10 48.91066 3.01913 25079 ft 395 kts 202°
2026-04-26 11:10 48.88571 3.00198 25551 ft 383 kts 219°
2026-04-26 11:10 48.86404 2.97821 26052 ft 381 kts 223°
2026-04-26 11:10 48.84455 2.95064 26381 ft 379 kts 236°
2026-04-26 11:11 48.83061 2.91750 26919 ft 373 kts 245°
2026-04-26 11:11 48.81856 2.88207 27274 ft 377 kts 246°
2026-04-26 11:11 48.80667 2.84623 27700 ft 378 kts 246°
2026-04-26 11:11 48.79474 2.81032 28127 ft 380 kts 246°
2026-04-26 11:12 48.78272 2.77422 28511 ft 382 kts 246°
2026-04-26 11:12 48.77049 2.73761 28905 ft 384 kts 246°
2026-04-26 11:12 48.75833 2.70125 29278 ft 386 kts 246°
2026-04-26 11:12 48.74600 2.66443 29651 ft 388 kts 246°
2026-04-26 11:13 48.73316 2.62852 29987 ft 392 kts 241°
2026-04-26 11:13 48.71635 2.59552 30330 ft 399 kts 231°
2026-04-26 11:13 48.69503 2.56753 30736 ft 406 kts 220°
2026-04-26 11:13 48.67079 2.54441 31211 ft 408 kts 217°
2026-04-26 11:14 48.64607 2.52254 31634 ft 407 kts 217°
2026-04-26 11:14 48.62133 2.50077 32067 ft 406 kts 217°
2026-04-26 11:14 48.59721 2.47951 32493 ft 404 kts 217°
2026-04-26 11:14 48.57287 2.45801 32917 ft 402 kts 217°
2026-04-26 11:15 48.54858 2.43655 33329 ft 401 kts 217°
2026-04-26 11:15 48.52414 2.41635 33712 ft 404 kts 212°
2026-04-26 11:15 48.49728 2.40160 34090 ft 412 kts 202°
2026-04-26 11:15 48.46834 2.39538 34420 ft 424 kts 189°
2026-04-26 11:16 48.43816 2.39630 34804 ft 427 kts 186°
2026-04-26 11:16 48.40852 2.39869 35103 ft 428 kts 185°
2026-04-26 11:16 48.37884 2.40119 35265 ft 429 kts 185°
2026-04-26 11:16 48.34882 2.40366 35260 ft 429 kts 185°
2026-04-26 11:17 48.28916 2.41349 35261 ft 432 kts 178°
2026-04-26 11:17 48.23090 2.43915 35254 ft 442 kts 169°
2026-04-26 11:18 48.17242 2.46984 35247 ft 444 kts 169°
2026-04-26 11:18 48.11372 2.50080 35244 ft 443 kts 169°
2026-04-26 11:19 48.05518 2.53110 35242 ft 442 kts 170°
2026-04-26 11:19 47.99624 2.56001 35237 ft 442 kts 170°
2026-04-26 11:20 47.94696 2.58415 35236 ft 442 kts 170°
2026-04-26 11:20 47.87852 2.61767 35236 ft 442 kts 170°
2026-04-26 11:21 47.82046 2.64607 35236 ft 442 kts 170°
2026-04-26 11:21 47.76236 2.67444 35235 ft 442 kts 170°
2026-04-26 11:22 47.70453 2.70262 35231 ft 442 kts 170°
2026-04-26 11:22 47.64603 2.73107 35224 ft 442 kts 170°
2026-04-26 11:23 47.58765 2.75940 35216 ft 442 kts 170°
2026-04-26 11:23 47.52899 2.78780 35211 ft 442 kts 170°
2026-04-26 11:24 47.47043 2.81608 35209 ft 442 kts 170°
2026-04-26 11:24 47.41178 2.84434 35209 ft 442 kts 170°
2026-04-26 11:25 47.35259 2.87279 35209 ft 442 kts 170°
2026-04-26 11:25 47.29368 2.90103 35209 ft 443 kts 170°
2026-04-26 11:26 47.23466 2.92925 35209 ft 444 kts 170°
2026-04-26 11:26 47.17543 2.95751 35209 ft 445 kts 170°
2026-04-26 11:27 47.11579 2.98596 35209 ft 447 kts 169°
2026-04-26 11:27 47.05688 3.01888 35209 ft 451 kts 166°
2026-04-26 11:28 46.99828 3.05293 35208 ft 453 kts 166°
2026-04-26 11:28 46.93836 3.08742 35210 ft 462 kts 166°
2026-04-26 11:29 46.87797 3.12193 35209 ft 472 kts 166°
2026-04-26 11:29 46.81737 3.15642 35208 ft 475 kts 166°
2026-04-26 11:30 46.76685 3.18515 35208 ft 472 kts 166°
2026-04-26 11:30 46.69601 3.22526 35209 ft 471 kts 166°
2026-04-26 11:31 46.63491 3.25972 35209 ft 472 kts 166°
2026-04-26 11:31 46.57359 3.29423 35209 ft 472 kts 166°
2026-04-26 11:32 46.51245 3.32856 35209 ft 472 kts 166°
2026-04-26 11:32 46.45116 3.36287 35209 ft 472 kts 166°
2026-04-26 11:33 46.38989 3.39710 35209 ft 472 kts 166°
2026-04-26 11:33 46.32794 3.43162 35209 ft 472 kts 166°
2026-04-26 11:34 46.26577 3.46618 35209 ft 472 kts 166°
2026-04-26 11:34 46.20488 3.49995 35209 ft 472 kts 166°
2026-04-26 11:35 46.14339 3.53396 35209 ft 472 kts 166°
2026-04-26 11:35 46.08157 3.56808 35209 ft 472 kts 166°
2026-04-26 11:36 46.02071 3.60159 35209 ft 472 kts 166°
2026-04-26 11:36 45.95955 3.63518 35209 ft 472 kts 166°
2026-04-26 11:37 45.89877 3.66853 35209 ft 471 kts 167°
2026-04-26 11:37 45.84129 3.70004 35209 ft 471 kts 167°
2026-04-26 11:38 45.71963 3.76638 35209 ft 472 kts 167°
2026-04-26 11:39 45.65741 3.80018 35209 ft 472 kts 167°
2026-04-26 11:39 45.59559 3.83367 35209 ft 471 kts 167°
2026-04-26 11:40 45.53375 3.86708 35209 ft 472 kts 167°
2026-04-26 11:40 45.47147 3.90065 35209 ft 472 kts 167°
2026-04-26 11:42 45.26786 4.14535 35209 ft 501 kts 129°
2026-04-26 11:43 45.22631 4.22658 35209 ft 501 kts 129°
2026-04-26 11:43 45.18488 4.30725 35208 ft 501 kts 129°
2026-04-26 11:44 45.14352 4.38750 35201 ft 501 kts 129°
2026-04-26 11:44 45.10163 4.46719 35179 ft 499 kts 133°
2026-04-26 11:45 45.05606 4.54151 35163 ft 496 kts 135°
2026-04-26 11:45 45.01027 4.61520 35155 ft 493 kts 134°
2026-04-26 11:46 44.96481 4.68874 35155 ft 490 kts 134°
2026-04-26 11:46 44.91999 4.76145 35155 ft 489 kts 134°
2026-04-26 11:47 44.87521 4.83392 35155 ft 491 kts 134°
2026-04-26 11:47 44.82995 4.90684 35155 ft 494 kts 133°
2026-04-26 11:48 44.78495 4.97925 35155 ft 496 kts 133°
2026-04-26 11:48 44.73872 5.05347 35154 ft 498 kts 132°
2026-04-26 11:49 44.69257 5.12756 35126 ft 498 kts 132°
2026-04-26 11:49 44.64635 5.20152 35127 ft 497 kts 132°
2026-04-26 11:50 44.60026 5.27500 35123 ft 497 kts 132°
2026-04-26 11:50 44.55397 5.34859 35118 ft 498 kts 132°
2026-04-26 11:51 44.50777 5.42185 35118 ft 498 kts 132°
2026-04-26 11:51 44.46160 5.49485 35122 ft 497 kts 132°
2026-04-26 11:52 44.41534 5.56782 35119 ft 498 kts 132°
2026-04-26 11:52 44.37094 5.64389 35112 ft 498 kts 124°
2026-04-26 11:53 44.33144 5.72416 35104 ft 498 kts 124°
2026-04-26 11:54 44.27256 5.84513 35120 ft 498 kts 124°
2026-04-26 11:54 44.23314 5.92582 35139 ft 498 kts 124°
2026-04-26 11:55 44.19352 6.00677 35153 ft 498 kts 124°
2026-04-26 11:55 44.15376 6.08774 35155 ft 498 kts 124°
2026-04-26 11:56 44.11431 6.16784 35155 ft 498 kts 124°
2026-04-26 11:56 44.07472 6.24800 35155 ft 497 kts 124°
2026-04-26 11:57 44.03524 6.32777 35155 ft 498 kts 124°
2026-04-26 11:57 43.99564 6.40757 35155 ft 498 kts 124°
2026-04-26 11:58 43.95562 6.48794 35155 ft 498 kts 124°
2026-04-26 11:58 43.91575 6.56781 35155 ft 498 kts 124°
2026-04-26 11:59 43.87590 6.64741 35155 ft 497 kts 124°
2026-04-26 11:59 43.83612 6.72687 35155 ft 497 kts 125°
2026-04-26 12:00 43.79620 6.80634 35155 ft 498 kts 125°
2026-04-26 12:00 43.75614 6.88570 35155 ft 498 kts 126°
2026-04-26 12:01 43.71131 6.95983 35152 ft 496 kts 138°
2026-04-26 12:01 43.65764 7.02021 35161 ft 491 kts 145°
2026-04-26 12:02 43.60285 7.07753 35166 ft 485 kts 145°
2026-04-26 12:02 43.54855 7.13407 35173 ft 481 kts 145°
2026-04-26 12:03 43.49474 7.18995 35179 ft 478 kts 145°
2026-04-26 12:03 43.44082 7.24582 35182 ft 476 kts 145°
2026-04-26 12:04 43.38739 7.30103 35182 ft 477 kts 145°
2026-04-26 12:04 43.33351 7.35657 35181 ft 478 kts 145°
2026-04-26 12:05 43.28012 7.41149 35180 ft 477 kts 145°
2026-04-26 12:05 43.22600 7.46703 35182 ft 477 kts 145°
2026-04-26 12:06 43.17209 7.52221 35182 ft 477 kts 145°
2026-04-26 12:06 43.11729 7.57512 35182 ft 475 kts 150°
2026-04-26 12:07 43.05703 7.61421 35185 ft 470 kts 163°
2026-04-26 12:07 42.99426 7.64574 35181 ft 472 kts 163°
2026-04-26 12:08 42.93115 7.67710 35182 ft 479 kts 163°
2026-04-26 12:08 42.86716 7.70883 35180 ft 486 kts 163°
2026-04-26 12:09 42.80271 7.74080 35175 ft 486 kts 163°
2026-04-26 12:09 42.73830 7.77266 35172 ft 484 kts 163°
2026-04-26 12:10 42.67435 7.80417 34944 ft 477 kts 163°
2026-04-26 12:10 42.64305 7.81956 34433 ft 474 kts 163°
2026-04-26 12:10 42.61147 7.83507 33857 ft 472 kts 163°
2026-04-26 12:10 42.58023 7.85038 33302 ft 470 kts 163°
2026-04-26 12:11 42.54915 7.86559 32747 ft 468 kts 163°
2026-04-26 12:11 42.51824 7.88070 32199 ft 465 kts 163°
2026-04-26 12:11 42.48777 7.89558 31653 ft 463 kts 163°
2026-04-26 12:11 42.45697 7.91060 31102 ft 460 kts 163°
2026-04-26 12:12 42.42660 7.92540 30561 ft 458 kts 163°
2026-04-26 12:12 42.39652 7.94005 30023 ft 455 kts 163°
2026-04-26 12:12 42.36631 7.95474 29477 ft 453 kts 163°
2026-04-26 12:12 42.34681 7.96516 29115 ft 453 kts 158°
2026-04-26 12:13 42.30936 7.99311 28397 ft 451 kts 144°
2026-04-26 12:13 42.28577 8.02102 27864 ft 448 kts 134°
2026-04-26 12:13 42.26474 8.05136 27336 ft 446 kts 131°
2026-04-26 12:13 42.24394 8.08227 26806 ft 443 kts 131°
2026-04-26 12:14 42.22315 8.11317 26278 ft 440 kts 131°
2026-04-26 12:14 42.20250 8.14378 25758 ft 438 kts 131°
2026-04-26 12:14 42.18167 8.17458 25236 ft 435 kts 131°
2026-04-26 12:14 42.16122 8.20477 24718 ft 432 kts 131°
2026-04-26 12:15 42.14091 8.23472 24208 ft 429 kts 131°
2026-04-26 12:15 42.12057 8.26465 23690 ft 426 kts 131°
2026-04-26 12:15 42.10054 8.29409 23187 ft 424 kts 131°
2026-04-26 12:15 42.08052 8.32348 22680 ft 421 kts 131°
2026-04-26 12:16 42.06068 8.35256 22179 ft 418 kts 131°
2026-04-26 12:16 42.04075 8.38174 21676 ft 415 kts 131°
2026-04-26 12:16 42.02121 8.41033 21175 ft 412 kts 131°
2026-04-26 12:16 42.00163 8.43895 20672 ft 409 kts 131°
2026-04-26 12:17 41.98219 8.46732 20177 ft 407 kts 131°
2026-04-26 12:17 41.96265 8.49582 19677 ft 404 kts 131°
2026-04-26 12:17 41.94384 8.52323 19198 ft 401 kts 131°
2026-04-26 12:17 41.92477 8.55100 18711 ft 398 kts 131°
2026-04-26 12:18 41.90588 8.57846 18228 ft 395 kts 131°
2026-04-26 12:18 41.88717 8.60565 17743 ft 392 kts 131°
2026-04-26 12:18 41.86843 8.63286 17264 ft 389 kts 131°
2026-04-26 12:18 41.85017 8.65935 16796 ft 386 kts 132°
2026-04-26 12:19 41.83185 8.68594 16323 ft 382 kts 132°
2026-04-26 12:19 41.81343 8.71265 15854 ft 379 kts 132°
2026-04-26 12:19 41.79527 8.73893 15388 ft 376 kts 132°
2026-04-26 12:19 41.77734 8.76486 14927 ft 373 kts 132°
2026-04-26 12:20 41.76001 8.79126 14463 ft 369 kts 128°
2026-04-26 12:20 41.74405 8.81819 14010 ft 366 kts 127°
2026-04-26 12:20 41.72837 8.84494 13559 ft 364 kts 127°
2026-04-26 12:20 41.71257 8.87173 13107 ft 361 kts 127°
2026-04-26 12:21 41.69687 8.89822 12660 ft 358 kts 127°
2026-04-26 12:21 41.68145 8.92417 12219 ft 355 kts 128°
2026-04-26 12:21 41.66590 8.95028 11752 ft 344 kts 128°
2026-04-26 12:21 41.65105 8.97519 11341 ft 330 kts 128°
2026-04-26 12:22 41.63684 8.99899 10931 ft 318 kts 128°
2026-04-26 12:22 41.62306 9.02204 10542 ft 307 kts 129°
2026-04-26 12:22 41.60986 9.04406 10191 ft 296 kts 129°
2026-04-26 12:22 41.59721 9.06519 10040 ft 279 kts 129°
2026-04-26 12:23 41.58488 9.08564 9660 ft 287 kts 129°
2026-04-26 12:23 41.57194 9.10713 9251 ft 291 kts 129°
2026-04-26 12:23 41.55914 9.12853 8883 ft 291 kts 129°
2026-04-26 12:23 41.54637 9.14988 8549 ft 289 kts 130°
2026-04-26 12:24 41.53381 9.17075 8192 ft 288 kts 130°
2026-04-26 12:24 41.52105 9.19189 7813 ft 279 kts 130°
2026-04-26 12:24 41.50909 9.21199 7468 ft 263 kts 130°
2026-04-26 12:25 41.48583 9.25089 6868 ft 274 kts 123°
2026-04-26 12:25 41.47883 9.27497 6517 ft 272 kts 101°
2026-04-26 12:25 41.47853 9.29965 6149 ft 255 kts 73°
2026-04-26 12:25 41.48723 9.31925 5764 ft 236 kts 42°
2026-04-26 12:26 41.49971 9.33285 5395 ft 222 kts 32°
2026-04-26 12:26 41.51339 9.34141 5109 ft 204 kts
2026-04-26 12:26 41.52724 9.34224 4878 ft 193 kts 349°
2026-04-26 12:26 41.54016 9.33799 4633 ft 188 kts 333°
2026-04-26 12:27 41.55054 9.32764 4433 ft 182 kts 311°
2026-04-26 12:27 41.56001 9.31588 4328 ft 185 kts 321°
2026-04-26 12:27 41.57150 9.30710 4267 ft 190 kts 332°
2026-04-26 12:27 41.58328 9.30013 4236 ft 169 kts 333°
2026-04-26 12:28 41.59386 9.29408 4112 ft 155 kts 333°
2026-04-26 12:28 41.60367 9.28804 4116 ft 146 kts 324°
2026-04-26 12:28 41.61028 9.27827 4009 ft 141 kts 288°
2026-04-26 12:28 41.61091 9.26534 3865 ft 138 kts 255°
2026-04-26 12:29 41.60620 9.25409 3420 ft 138 kts 225°
2026-04-26 12:29 41.59924 9.24550 3099 ft 131 kts 224°
2026-04-26 12:29 41.58684 9.22656 3084 ft 130 kts 229°
2026-04-26 12:30 41.58068 9.21673 3125 ft 139 kts 230°
2026-04-26 12:30 41.57451 9.20659 2750 ft 137 kts 230°
2026-04-26 12:30 41.56854 9.19646 2260 ft 134 kts 232°
2026-04-26 12:31 41.55638 9.17782 1543 ft 130 kts 227°
2026-04-26 12:31 41.55022 9.16858 1422 ft 131 kts 226°
2026-04-26 12:31 41.54396 9.15927 1294 ft 133 kts 229°
2026-04-26 12:31 41.53782 9.14957 1060 ft 133 kts 229°
2026-04-26 12:32 41.53180 9.14010 863 ft 131 kts 228°
2026-04-26 12:32 41.52545 9.13104 667 ft 131 kts 227°
2026-04-26 12:32 41.51294 9.11254 235 ft 130 kts 227°
2026-04-26 12:33 41.50671 9.10341 82 ft 130 kts 228°
2026-04-26 12:33 41.50037 9.09431 98 ft 132 kts 227°
2026-04-26 12:33 41.49420 9.08521 418 ft 138 kts 229°
2026-04-26 12:33 41.48850 9.07589 873 ft 125 kts 230°
2026-04-26 12:34 41.48289 9.06643 1134 ft 127 kts 237°
2026-04-26 12:34 41.48074 9.05505 1403 ft 134 kts 279°
2026-04-26 12:34 41.48606 9.04496 1890 ft 136 kts 329°
2026-04-26 12:34 41.49593 9.04415 2122 ft 156 kts 24°
2026-04-26 12:35 41.50419 9.05421 2450 ft 163 kts 49°
2026-04-26 12:35 41.51214 9.06569 2813 ft 165 kts 44°
2026-04-26 12:35 41.51987 9.07711 3242 ft 160 kts 49°
2026-04-26 12:35 41.52698 9.08893 3177 ft 169 kts 53°
2026-04-26 12:36 41.53433 9.10196 3178 ft 174 kts 50°
2026-04-26 12:36 41.54158 9.11460 3467 ft 162 kts 53°
2026-04-26 12:36 41.54851 9.12680 3475 ft 157 kts 47°
2026-04-26 12:36 41.55558 9.13808 3264 ft 154 kts 48°
2026-04-26 12:37 41.56263 9.14902 2924 ft 154 kts 53°
2026-04-26 12:37 41.56621 9.16223 2487 ft 146 kts 95°
2026-04-26 12:37 41.56198 9.17405 1952 ft 144 kts 149°
2026-04-26 12:37 41.55254 9.17592 1282 ft 141 kts 205°
2026-04-26 12:38 41.54601 9.16669 1014 ft 136 kts 243°
2026-04-26 12:38 41.54023 9.15561 993 ft 143 kts 231°
2026-04-26 12:38 41.53395 9.14473 881 ft 147 kts 232°
2026-04-26 12:38 41.52729 9.13415 667 ft 144 kts 230°
2026-04-26 12:39 41.52075 9.12389 453 ft 142 kts 227°
2026-04-26 12:39 41.51385 9.11377 292 ft 145 kts 225°
2026-04-26 12:39 41.50692 9.10371 109 ft 145 kts 225°
2026-04-26 12:39 41.50058 9.09341 139 ft 141 kts 224°